Aérodrome :
LOGIN :

S'inscrire | Disclaimer

   EN    FR    IT 

 










Légende :    VFR   VFR Marginal   IFR   IFR Intensif   IFR Très Intensif
Visi : 
Plafond : 
>= 8 km
>= 3000ft
5 à 8 km
1000 à 3000 ft
1500m à 5 km
500 à 1000 ft
800 à 1500m
200 à 500 ft
< 800m
< 200 ft
Symboles :   Orages  Brouillard  Fortes neiges  Fortes précipitations  Vent > 20 kt
SIGMETs :   Divers  Orages  Givrage  Turbulence  Onde Orograph.  Cendres Volcan.







- Altitude de l'aérodrome : 1017 ft
- Voir les cartes d'approche


LFSL - Brive Souillac

DERNIER METAR :
  • 202230Z AUTO 33004KT CAVOK 17/14 Q1017

METARs EXPIRÉS :
  • 202200Z AUTO 32005KT CAVOK 17/14 Q1017
  • 202130Z AUTO 32005KT CAVOK 18/14 Q1017
  • 202100Z AUTO 33006KT CAVOK 19/14 Q1017
  • 202030Z AUTO 33005KT 300V360 CAVOK 19/14 Q1016
  • 202000Z AUTO 30004KT 270V330 CAVOK 19/14 Q1016 NOSIG

TAF TAF LFSL
Valide du 20 à 15h jusqu'au 21 à 00h UTC


201400Z 2015/2024 33005KT 9999 SCT030 BKN060
TEMPO 2015/2018 SCT035TCU
BECMG 2019/2021 CAVOK
Pas de NOTAMs connus pour ce terrain.



MET'MAP, la Météo Aéronautique d'un coup d'oeil ! - Copyright ORBIFLY Décembre 2007 - Disclaimer

ORBIFLY MET'MAP TEAM :

Programmation & Développement : Alexandra Zaïnal
Conception & Développement : Baudouin d'Aumeries
Co-Programmation & Développement : Marc-Olivier Méhu
Soutien technique & logistique : Manuel Goepfert

Contact : metmap@orbifly.com




SOURCES & CREDITS :

   NOAA